Vorticity
9 9 6 5 5 6 11 11 11 8 6 11 9 10 4 10 11 9 15 20 23 17
10 7 6 3 10 12 13 10 6 10 11 12 5 11 5 4 17 16 -6 11 23 25
7 3 4 13 14 10 8 6 5 13 8 14 5 8 4 13 17 5 17 8 40 27
2 9 17 13 7 1 11 5 13 4 13 6 6 9 2 16 10 5 10 33 40 35
18 12 9 4 4 16 7 15 2 18 9 9 -0 4 8 15 14 17 28 14 48 25
9 3 4 13 19 11 17 3 10 13 7 4 12 8 16 11 10 17 34 -3 7 28
14 23 20 14 14 10 6 10 8 10 5 5 7 14 20 23 11 20 11 19 6 11
10 10 5 5 -1 10 12 24 -0 7 6 6 11 13 -6 6 9 24 12 27 18 16
8 2 7 13 13 12 17 15 4 9 2 15 17 14 8 18 9 18 14 17 13 14
18 17 8 -1 17 11 8 9 4 7 11 17 14 13 16 16 5 4 4 23 11 27
13 12 19 19 12 14 6 4 14 11 9 10 11 13 13 11 7 8 9 6 2 9
12 16 15 13 12 11 15 9 8 11 11 13 9 10 10 11 15 15 12 12 21 16
16 14 11 9 10 11 10 8 7 10 13 12 14 18 17 13 11 11 9 8 7 6
11 9 10 10 11 7 8 12 14 16 16 15 12 10 10 9 6 6 6 5 5 6
Height
5760 5760 5759 5758 5756 5755 5753 5751 5748 5746 5744 5741 5737 5733 5730 5727 5722 5717 5711 5706 5701 5697
5751 5751 5750 5749 5747 5744 5742 5740 5738 5736 5733 5731 5727 5723 5719 5713 5706 5701 5695 5687 5679 5673
5741 5741 5740 5738 5736 5734 5732 5730 5727 5725 5723 5720 5716 5712 5707 5700 5693 5686 5678 5668 5658 5652
5731 5731 5729 5728 5726 5724 5722 5719 5717 5714 5712 5710 5706 5701 5694 5687 5680 5672 5662 5649 5638 5633
5721 5719 5719 5718 5716 5713 5711 5709 5707 5704 5702 5699 5695 5689 5683 5676 5668 5659 5648 5639 5628 5622
5711 5711 5709 5707 5705 5703 5701 5699 5697 5695 5693 5690 5685 5679 5673 5666 5657 5648 5640 5632 5625 5617
5702 5700 5698 5697 5696 5694 5692 5691 5688 5687 5684 5680 5676 5670 5664 5657 5649 5640 5632 5625 5619 5613
5692 5691 5690 5689 5687 5685 5684 5681 5680 5678 5675 5671 5666 5661 5656 5650 5642 5634 5627 5620 5614 5608
5684 5683 5682 5680 5678 5677 5675 5673 5671 5670 5666 5661 5657 5653 5648 5643 5636 5629 5622 5617 5611 5605
5676 5674 5673 5672 5671 5669 5667 5666 5663 5660 5656 5652 5649 5645 5641 5636 5630 5624 5619 5613 5608 5603
5668 5667 5665 5664 5663 5661 5659 5657 5654 5651 5648 5645 5642 5638 5634 5629 5624 5619 5614 5610 5606 5601
5662 5661 5659 5657 5656 5655 5652 5649 5647 5644 5641 5638 5634 5631 5627 5623 5618 5614 5609 5605 5602 5599
5656 5654 5652 5651 5650 5648 5645 5642 5640 5637 5634 5630 5627 5623 5620 5616 5613 5609 5606 5602 5598 5595
5649 5649 5647 5645 5644 5642 5639 5636 5633 5630 5627 5623 5620 5617 5615 5612 5608 5605 5601 5597 5593 5590